星链-11139 (STARLINK-11139)

导读

STARLINK-11139是美国SpaceX公司于2024年8月10日发射的第二代“星链”卫星,属于Starlink Group 8-3任务批次,可能为支持直连手机服务的D2C卫星。它是SpaceX星链低轨宽带通信星座的组成部分,采用霍尔推进器,具备自主避撞能力,服役寿命约5-7年,退役后将再入大气层销毁,旨在为全球提供高速互联网接入服务。

基本信息
目录编号:
60402
目录名称:
STARLINK-11139
国际标识:
2024-141E
轨道中心:
EARTH
卫星名称:
星链-11139 (STARLINK-11139)
卫星全名:
星链-11139 (STARLINK-11139)
卫星状态:
在轨 (已飞行756 天)
发射日期:
2024-08-10 UTC
国别 :
美国 (US)
星等 :
--
轨道信息
数据来源 国际轨道数据
星历时间: 2026-09-05T10:04:34+0800
15小时前
查看轨道信息
半长轴: 6737.865km
偏心率: 0.0001404
轨道倾角: 53.161°
近地点辐角 93.035°
升交点赤经 281.579°
平近点角 267.083°
近地点: 358.782km
远地点: 360.674km
周期: 91.737分钟
每日圈数: 15.697097
详细信息
卫星平台:
Starlink v2.0 mini
运营商:
太空探索技术公司
运营商所在国:
美国
制造商(研发单位):
太空探索技术公司
制造商所在国:
美国
使用方式:
暂无
卫星简介
星链(Starlink)计划是由太空探索技术公司(SpaceX)提出的一个巨型低轨卫星互联网星座项目,计划在2019年至2024年间在太空搭建由约1.2万颗卫星组成的“星链”网络,其中1584颗将部署在地球上空550千米处的近地轨道,并从2020年开始工作。该卫星仍在工作。
2D轨道图
3D轨道图
轨道高度分析图
轨道倾角分析图
轨道综合分析图
查看轨道综合分析图
交会数据列表
事件ID 空间交会对象 最接近时刻(TCA) 交会距离 交会风险概率(CRP) 交会风险指数(CRI) 操作
CDM_260906-053806-024606-040223
CATSAT (60246)
2026-09-06T
05:38:38+0000
2.604 km
极远距离
1.640167E-6 低风险 0.39
CDM_260906-163306-040206-195121
2026-09-06T
16:33:17+0000
2.614 km
极远距离
1.094405E-6 低风险 0.36